軌道要素
Epoch 2015 Sept. 15.0 TT = JDT 2457280.5
T 2015 Sept. 5.86438 TT MPCW
q 4.1801817 (2000.0) P Q
z -0.0001952 Peri. 356.78843 +0.85257580 +0.30629465
+/-0.0000003 Node 29.72718 +0.49649568 -0.72761937
e 1.0008161 Incl. 121.35890 +0.16311510 +0.61380260
From 2594 observations 2014 Jan. 12-2017 Sept. 17, mean residual 0".5.
|